BAW314S EGLL-LFPG

Flight info

Callsign BAW314S
Flight time 0h 41m
Altitude 25000
Route MODMI1J MODMI M185 MID UL612 BOGNA DCT HARDY UM605 BIBAX BIBAX9W
Aircraft A319/M-SDE3FGIJ1KRWXY/LB1

Departure

Time 2026-05-05 19:51
Airport London Heathrow Airport (EGLL)

Arrival

Time 2026-05-05 20:32
Airport Charles de Gaulle International Airport (LFPG)
Time Latitude Longitude Altitude Speed Heading
2026-05-05 19:16 51.47271 -0.48588 89 ft 0 kts 269°
2026-05-05 19:39 51.47271 -0.48561 87 ft 4 kts 269°
2026-05-05 19:39 51.47271 -0.48524 89 ft 2 kts 270°
2026-05-05 19:40 51.47275 -0.48487 89 ft 4 kts 227°
2026-05-05 19:40 51.47295 -0.48473 89 ft 3 kts 179°
2026-05-05 19:40 51.47310 -0.48473 88 ft 0 kts 179°
2026-05-05 19:45 51.47307 -0.48473 87 ft 2 kts 179°
2026-05-05 19:45 51.47280 -0.48461 89 ft 6 kts 145°
2026-05-05 19:45 51.47266 -0.48386 90 ft 8 kts 104°
2026-05-05 19:46 51.47212 -0.48357 86 ft 10 kts 179°
2026-05-05 19:46 51.47137 -0.48357 86 ft 12 kts 180°
2026-05-05 19:46 51.47047 -0.48357 86 ft 14 kts 180°
2026-05-05 19:46 51.46951 -0.48356 87 ft 12 kts 180°
2026-05-05 19:47 51.46881 -0.48355 88 ft 9 kts 180°
2026-05-05 19:47 51.46843 -0.48355 86 ft 2 kts 180°
2026-05-05 19:47 51.46823 -0.48355 86 ft 4 kts 180°
2026-05-05 19:47 51.46781 -0.48354 86 ft 7 kts 180°
2026-05-05 19:48 51.46743 -0.48403 86 ft 8 kts 256°
2026-05-05 19:48 51.46742 -0.48510 86 ft 11 kts 270°
2026-05-05 19:48 51.46742 -0.48652 86 ft 14 kts 270°
2026-05-05 19:48 51.46727 -0.48736 89 ft 8 kts 220°
2026-05-05 19:49 51.46670 -0.48749 86 ft 9 kts 181°
2026-05-05 19:49 51.46624 -0.48755 88 ft 11 kts 193°
2026-05-05 19:49 51.46522 -0.48784 86 ft 10 kts 164°
2026-05-05 19:49 51.46477 -0.48688 86 ft 12 kts 93°
2026-05-05 19:50 51.46478 -0.48456 87 ft 41 kts 89°
2026-05-05 19:50 51.46481 -0.47681 86 ft 97 kts 90°
2026-05-05 19:50 51.46486 -0.46304 91 ft 148 kts 89°
2026-05-05 19:50 51.46490 -0.44506 452 ft 164 kts 88°
2026-05-05 19:51 51.46509 -0.42652 1124 ft 168 kts 89°
2026-05-05 19:51 51.46192 -0.40808 1627 ft 185 kts 120°
2026-05-05 19:51 51.45409 -0.39001 2002 ft 210 kts 124°
2026-05-05 19:51 51.44187 -0.37482 2435 ft 242 kts 156°
2026-05-05 19:52 51.42529 -0.36513 2850 ft 261 kts 160°
2026-05-05 19:52 51.40752 -0.35774 3258 ft 267 kts 175°
2026-05-05 19:52 51.38918 -0.36277 3654 ft 272 kts 203°
2026-05-05 19:52 51.37225 -0.37631 4046 ft 273 kts 207°
2026-05-05 19:53 51.35515 -0.39008 4666 ft 276 kts 207°
2026-05-05 19:53 51.33791 -0.40376 5687 ft 278 kts 207°
2026-05-05 19:53 51.32038 -0.41757 6654 ft 282 kts 207°
2026-05-05 19:53 51.30261 -0.43151 7573 ft 287 kts 207°
2026-05-05 19:54 51.28458 -0.44561 8514 ft 290 kts 207°
2026-05-05 19:54 51.26633 -0.45991 9436 ft 294 kts 207°
2026-05-05 19:54 51.24805 -0.47441 10194 ft 303 kts 207°
2026-05-05 19:54 51.22846 -0.49007 10471 ft 327 kts 207°
2026-05-05 19:55 51.20747 -0.50663 10874 ft 342 kts 207°
2026-05-05 19:55 51.18589 -0.52339 11554 ft 347 kts 206°
2026-05-05 19:55 51.16403 -0.54023 12294 ft 351 kts 206°
2026-05-05 19:55 51.14199 -0.55718 13021 ft 354 kts 206°
2026-05-05 19:56 51.11968 -0.57435 13739 ft 358 kts 206°
2026-05-05 19:56 51.09689 -0.59060 14347 ft 361 kts 199°
2026-05-05 19:56 51.07225 -0.59922 14996 ft 365 kts 185°
2026-05-05 19:56 51.04719 -0.59818 15617 ft 367 kts 171°
2026-05-05 19:57 51.02251 -0.58739 16228 ft 370 kts 156°
2026-05-05 19:57 51.00732 -0.57504 16662 ft 372 kts 147°
2026-05-05 19:57 50.98577 -0.55202 17312 ft 375 kts 145°
2026-05-05 19:57 50.95666 -0.52082 18186 ft 380 kts 145°
2026-05-05 19:58 50.94208 -0.50527 18567 ft 382 kts 145°
2026-05-05 19:58 50.91988 -0.48170 19133 ft 386 kts 146°
2026-05-05 19:58 50.89750 -0.45798 19705 ft 389 kts 146°
2026-05-05 19:58 50.87489 -0.43407 20297 ft 392 kts 146°
2026-05-05 19:59 50.85213 -0.41000 20861 ft 396 kts 146°
2026-05-05 19:59 50.82913 -0.38570 21415 ft 399 kts 146°
2026-05-05 19:59 50.80597 -0.36123 21963 ft 403 kts 146°
2026-05-05 19:59 50.78257 -0.33650 22496 ft 406 kts 146°
2026-05-05 20:00 50.75936 -0.31201 23008 ft 409 kts 146°
2026-05-05 20:00 50.73525 -0.28640 23521 ft 413 kts 144°
2026-05-05 20:00 50.71338 -0.25683 23953 ft 415 kts 134°
2026-05-05 20:00 50.69497 -0.22167 24406 ft 417 kts 124°
2026-05-05 20:01 50.68057 -0.18193 24812 ft 419 kts 115°
2026-05-05 20:01 50.66794 -0.14061 24927 ft 416 kts 115°
2026-05-05 20:01 50.65563 -0.10044 24945 ft 410 kts 116°
2026-05-05 20:01 50.64322 -0.06028 24946 ft 406 kts 115°
2026-05-05 20:02 50.63087 -0.02045 24948 ft 404 kts 115°
2026-05-05 20:02 50.61858 0.01917 24948 ft 402 kts 115°
2026-05-05 20:02 50.60634 0.05868 24947 ft 401 kts 115°
2026-05-05 20:02 50.59408 0.09817 24945 ft 401 kts 115°
2026-05-05 20:03 50.58188 0.13754 24942 ft 401 kts 115°
2026-05-05 20:03 50.56784 0.17534 24942 ft 402 kts 128°
2026-05-05 20:03 50.54901 0.20784 24940 ft 403 kts 132°
2026-05-05 20:03 50.52967 0.23986 24940 ft 403 kts 133°
2026-05-05 20:04 50.51033 0.27179 24944 ft 403 kts 132°
2026-05-05 20:04 50.49103 0.30361 24941 ft 403 kts 133°
2026-05-05 20:04 50.47172 0.33547 24940 ft 403 kts 133°
2026-05-05 20:04 50.45240 0.36729 24939 ft 403 kts 133°
2026-05-05 20:05 50.43304 0.39912 24935 ft 403 kts 132°
2026-05-05 20:05 50.41371 0.43092 24935 ft 403 kts 133°
2026-05-05 20:05 50.39437 0.46261 24940 ft 402 kts 133°
2026-05-05 20:05 50.37500 0.49422 24946 ft 401 kts 133°
2026-05-05 20:06 50.35568 0.52577 24952 ft 401 kts 133°
2026-05-05 20:06 50.33638 0.55724 24953 ft 400 kts 133°
2026-05-05 20:06 50.31708 0.58862 24946 ft 400 kts 133°
2026-05-05 20:06 50.29784 0.61986 24946 ft 399 kts 133°
2026-05-05 20:07 50.27858 0.65112 24947 ft 399 kts 133°
2026-05-05 20:07 50.25937 0.68237 24946 ft 398 kts 133°
2026-05-05 20:07 50.24016 0.71360 24944 ft 398 kts 133°
2026-05-05 20:07 50.22094 0.74476 24935 ft 398 kts 133°
2026-05-05 20:08 50.20176 0.77585 24936 ft 398 kts 133°
2026-05-05 20:08 50.18249 0.80704 24783 ft 399 kts 133°
2026-05-05 20:08 50.16350 0.83767 24513 ft 397 kts 133°
2026-05-05 20:08 50.14429 0.86859 24265 ft 397 kts 133°
2026-05-05 20:09 50.12512 0.89938 24026 ft 395 kts 133°
2026-05-05 20:09 50.10601 0.93011 23797 ft 395 kts 134°
2026-05-05 20:09 50.08696 0.96076 23563 ft 393 kts 133°
2026-05-05 20:09 50.06762 0.99071 23298 ft 392 kts 138°
2026-05-05 20:10 50.04575 1.01574 23016 ft 391 kts 148°
2026-05-05 20:10 50.02166 1.03507 22742 ft 388 kts 154°
2026-05-05 20:10 49.99755 1.05312 22469 ft 380 kts 153°
2026-05-05 20:10 49.97397 1.07083 22219 ft 370 kts 153°
2026-05-05 20:11 49.95143 1.08780 22093 ft 358 kts 153°
2026-05-05 20:11 49.92949 1.10432 21875 ft 349 kts 153°
2026-05-05 20:11 49.90778 1.12070 21491 ft 345 kts 153°
2026-05-05 20:11 49.88625 1.13687 21095 ft 343 kts 153°
2026-05-05 20:12 49.86490 1.15288 20687 ft 340 kts 153°
2026-05-05 20:12 49.84362 1.16885 20286 ft 338 kts 153°
2026-05-05 20:12 49.82248 1.18469 19886 ft 336 kts 153°
2026-05-05 20:12 49.80153 1.20036 19485 ft 334 kts 153°
2026-05-05 20:13 49.78068 1.21594 18943 ft 331 kts 153°
2026-05-05 20:13 49.75996 1.23136 18347 ft 330 kts 153°
2026-05-05 20:13 49.73932 1.24673 17809 ft 328 kts 153°
2026-05-05 20:13 49.71892 1.26195 17335 ft 323 kts 153°
2026-05-05 20:14 49.69873 1.27698 16786 ft 322 kts 153°
2026-05-05 20:14 49.67850 1.29199 16371 ft 321 kts 153°
2026-05-05 20:14 49.65872 1.30666 15983 ft 319 kts 153°
2026-05-05 20:14 49.63874 1.32145 15591 ft 318 kts 153°
2026-05-05 20:15 49.61879 1.33621 15199 ft 317 kts 152°
2026-05-05 20:15 49.59896 1.35084 14813 ft 316 kts 152°
2026-05-05 20:15 49.57912 1.36550 14419 ft 315 kts 152°
2026-05-05 20:15 49.55957 1.37993 14163 ft 310 kts 153°
2026-05-05 20:16 49.53994 1.39440 13715 ft 312 kts 153°
2026-05-05 20:16 49.52050 1.40875 13291 ft 313 kts 153°
2026-05-05 20:16 49.50030 1.42367 12840 ft 326 kts 152°
2026-05-05 20:16 49.47974 1.43882 12446 ft 327 kts 152°
2026-05-05 20:17 49.45921 1.45392 12026 ft 326 kts 152°
2026-05-05 20:17 49.43881 1.46893 11627 ft 325 kts 152°
2026-05-05 20:17 49.41867 1.48371 11437 ft 315 kts 152°
2026-05-05 20:17 49.39925 1.49791 11301 ft 304 kts 152°
2026-05-05 20:18 49.38026 1.51176 11036 ft 300 kts 152°
2026-05-05 20:18 49.36150 1.52544 10700 ft 298 kts 152°
2026-05-05 20:18 49.34280 1.53908 10341 ft 297 kts 151°
2026-05-05 20:18 49.32476 1.55354 10042 ft 295 kts 144°
2026-05-05 20:19 49.30772 1.57098 9777 ft 294 kts 142°
2026-05-05 20:19 49.29088 1.58875 9543 ft 293 kts 142°
2026-05-05 20:19 49.27415 1.60654 9270 ft 291 kts 142°
2026-05-05 20:19 49.25755 1.62421 8996 ft 290 kts 142°
2026-05-05 20:20 49.24104 1.64179 8754 ft 289 kts 142°
2026-05-05 20:20 49.22454 1.65934 8543 ft 288 kts 142°
2026-05-05 20:20 49.20806 1.67688 8326 ft 288 kts 142°
2026-05-05 20:20 49.19166 1.69435 8130 ft 287 kts 142°
2026-05-05 20:21 49.17555 1.71237 7912 ft 285 kts 134°
2026-05-05 20:21 49.16305 1.73540 7718 ft 281 kts 123°
2026-05-05 20:21 49.15163 1.75951 7513 ft 280 kts 122°
2026-05-05 20:21 49.14034 1.78367 7319 ft 278 kts 122°
2026-05-05 20:22 49.12922 1.80771 7118 ft 277 kts 122°
2026-05-05 20:22 49.11810 1.83171 6915 ft 277 kts 122°
2026-05-05 20:22 49.10697 1.85566 6722 ft 276 kts 122°
2026-05-05 20:22 49.09585 1.87949 6524 ft 275 kts 122°
2026-05-05 20:23 49.08481 1.90304 6328 ft 269 kts 122°
2026-05-05 20:23 49.07417 1.92568 6147 ft 263 kts 122°
2026-05-05 20:23 49.06352 1.94834 5966 ft 257 kts 122°
2026-05-05 20:23 49.05328 1.97023 5781 ft 250 kts 122°
2026-05-05 20:24 49.04330 1.99158 5601 ft 244 kts 122°
2026-05-05 20:24 49.03358 2.01250 5421 ft 240 kts 122°
2026-05-05 20:24 49.02402 2.03298 5242 ft 234 kts 122°
2026-05-05 20:24 49.01469 2.05291 5063 ft 228 kts 122°
2026-05-05 20:25 49.00593 2.07210 4887 ft 219 kts 115°
2026-05-05 20:25 49.00130 2.09344 4709 ft 209 kts 92°
2026-05-05 20:25 49.00178 2.11524 4532 ft 206 kts 82°
2026-05-05 20:25 49.00304 2.13687 4349 ft 205 kts 81°
2026-05-05 20:26 49.00428 2.15841 4170 ft 204 kts 81°
2026-05-05 20:26 49.00548 2.17946 4067 ft 195 kts 81°
2026-05-05 20:26 49.00665 2.19992 4038 ft 192 kts 81°
2026-05-05 20:26 49.00781 2.22020 4036 ft 195 kts 81°
2026-05-05 20:27 49.00898 2.24083 4010 ft 196 kts 82°
2026-05-05 20:27 49.01014 2.26143 3825 ft 193 kts 82°
2026-05-05 20:27 49.01127 2.28160 3594 ft 189 kts 81°
2026-05-05 20:27 49.01237 2.30117 3386 ft 183 kts 81°
2026-05-05 20:28 49.01345 2.32045 3111 ft 181 kts 81°
2026-05-05 20:28 49.01450 2.33927 2861 ft 175 kts 81°
2026-05-05 20:28 49.01551 2.35748 2618 ft 169 kts 79°
2026-05-05 20:28 49.01649 2.37507 2398 ft 164 kts 79°
2026-05-05 20:29 49.01742 2.39187 2186 ft 160 kts 79°
2026-05-05 20:29 49.01832 2.40833 1968 ft 145 kts 79°
2026-05-05 20:29 49.01910 2.42266 1789 ft 133 kts 78°
2026-05-05 20:29 49.01986 2.43641 1614 ft 130 kts 77°
2026-05-05 20:30 49.02061 2.44994 1432 ft 127 kts 77°
2026-05-05 20:30 49.02136 2.46341 1265 ft 128 kts 78°
2026-05-05 20:30 49.02213 2.47684 1063 ft 131 kts 81°
2026-05-05 20:30 49.02295 2.49068 883 ft 131 kts 81°
2026-05-05 20:31 49.02361 2.50461 662 ft 131 kts 82°
2026-05-05 20:31 49.02436 2.51834 474 ft 129 kts 79°
2026-05-05 20:31 49.02505 2.53148 361 ft 117 kts 80°
2026-05-05 20:31 49.02563 2.54191 353 ft 76 kts 85°
2026-05-05 20:32 49.02594 2.54770 352 ft 40 kts 85°
2026-05-05 20:32 49.02604 2.55105 348 ft 21 kts 98°
2026-05-05 20:32 49.02568 2.55287 347 ft 15 kts 111°
2026-05-05 20:32 49.02525 2.55433 349 ft 15 kts 115°
2026-05-05 20:33 49.02490 2.55546 350 ft 8 kts 116°
2026-05-05 20:33 49.02453 2.55603 348 ft 7 kts 159°
2026-05-05 20:33 49.02409 2.55613 348 ft 7 kts 175°
2026-05-05 20:33 49.02353 2.55619 347 ft 8 kts 175°
2026-05-05 20:34 49.02296 2.55626 354 ft 10 kts 175°
2026-05-05 20:34 49.02207 2.55637 347 ft 13 kts 175°
2026-05-05 20:34 49.02120 2.55648 348 ft 12 kts 175°
2026-05-05 20:34 49.02024 2.55659 347 ft 14 kts 175°
2026-05-05 20:35 49.01933 2.55671 350 ft 9 kts 177°
2026-05-05 20:35 49.01892 2.55616 347 ft 8 kts 249°
2026-05-05 20:35 49.01885 2.55521 351 ft 12 kts 265°
2026-05-05 20:35 49.01876 2.55367 348 ft 16 kts 265°
2026-05-05 20:36 49.01866 2.55192 354 ft 17 kts 266°
2026-05-05 20:36 49.01860 2.55056 357 ft 11 kts 265°
2026-05-05 20:36 49.01854 2.54947 350 ft 11 kts 265°
2026-05-05 20:36 49.01818 2.54861 352 ft 10 kts 199°
2026-05-05 20:37 49.01733 2.54866 351 ft 15 kts 175°
2026-05-05 20:37 49.01660 2.54875 351 ft 17 kts 175°
2026-05-05 20:37 49.01496 2.54897 354 ft 19 kts 175°
2026-05-05 20:37 49.01363 2.54931 355 ft 20 kts 166°
2026-05-05 20:38 49.01230 2.54987 357 ft 20 kts 164°
2026-05-05 20:38 49.01094 2.55047 357 ft 19 kts 163°
2026-05-05 20:38 49.00973 2.55101 360 ft 17 kts 164°
2026-05-05 20:38 49.00868 2.55144 359 ft 15 kts 164°
2026-05-05 20:39 49.00777 2.55183 357 ft 12 kts 164°
2026-05-05 20:39 49.00694 2.55220 359 ft 14 kts 163°
2026-05-05 20:39 49.00598 2.55263 360 ft 14 kts 163°
2026-05-05 20:39 49.00508 2.55302 361 ft 14 kts 165°
2026-05-05 20:40 49.00395 2.55352 362 ft 18 kts 164°
2026-05-05 20:40 49.00281 2.55401 362 ft 16 kts 164°
2026-05-05 20:40 49.00180 2.55444 361 ft 14 kts 163°
2026-05-05 20:40 49.00094 2.55483 362 ft 12 kts 163°
2026-05-05 20:41 49.00042 2.55550 362 ft 9 kts 110°
2026-05-05 20:41 49.00059 2.55648 363 ft 12 kts 64°
2026-05-05 20:41 49.00075 2.55786 364 ft 14 kts 88°
2026-05-05 20:41 49.00078 2.55943 361 ft 15 kts 86°
2026-05-05 20:42 49.00086 2.56104 364 ft 15 kts 84°
2026-05-05 20:42 49.00096 2.56268 360 ft 16 kts 85°
2026-05-05 20:42 49.00104 2.56431 364 ft 15 kts 85°
2026-05-05 20:42 49.00112 2.56583 359 ft 10 kts 86°
2026-05-05 20:43 49.00115 2.56621 358 ft 3 kts 82°
2026-05-05 20:43 49.00129 2.56642 360 ft 3 kts 22°
2026-05-05 20:43 49.00153 2.56650 358 ft 4 kts 13°
2026-05-05 20:43 49.00183 2.56660 360 ft 4 kts 12°
2026-05-05 20:44 49.00190 2.56662 358 ft 0 kts 12°